Regional Weather Roundup
Issued by NWS

Home | Current Version | Previous Version | Graphics & Text | Print | Product List | Glossary On
Versions: 1 2 3 4 5 6 7 8 9 10 11 12 13 14 15 16 17 18 19 20 21 22 23 24 25 26 27 28 29 30 31 32 33 34 35 36 37 38 39 40 41 42 43 44 45 46 47 48
000
ASUS45 KBOI 160110
RWRID
WEATHER ROUNDUP FOR IDAHO
NATIONAL WEATHER SERVICE BOISE ID
700 PM MDT MON SEP 15 2014

NOTE: "FAIR" INDICATES FEW OR NO CLOUDS BELOW 12000 FEET
WITH NO SIGNIFICANT WEATHER AND/OR OBSTRUCTIONS TO VISIBILITY

IDZ012-014-160200-
SOUTHWEST IDAHO


CITY           SKY/WX    TMP DP  RH WIND       PRES   REMARKS
BOISE          MOCLDY    90  34  13 NE3       29.92F
CALDWELL       MOCLDY    90  39  17 N3        29.92S
MOUNTAIN HOME  PTCLDY    91  34  13 N2        29.92F
$$

IDZ016-017-160200-
SOUTHCENTRAL IDAHO


CITY           SKY/WX    TMP DP  RH WIND       PRES   REMARKS
BURLEY         PTCLDY    78  42  27 SE7       30.03S
JEROME         PTCLDY    80  55  42 N3        30.02F
TWIN FALLS     MOCLDY    81  48  31 E7        30.03F
$$

IDZ019>023-160200-
SOUTHEAST IDAHO


CITY           SKY/WX    TMP DP  RH WIND       PRES   REMARKS
IDAHO FALLS    CLEAR     81  33  17 S9        30.09S
POCATELLO      PTCLDY    84  36  18 W6        30.07S
REXBURG        CLEAR     78  35  21 S3        30.09F
$$

IDZ006-010-011-018-031-032-160200-
CENTRAL IDAHO MOUNTAINS


CITY           SKY/WX    TMP DP  RH WIND       PRES   REMARKS
MCCALL         MOCLDY    74  37  26 S6        30.08S
HAILEY         PTCLDY    79  39  24 SW5       30.12S
STANLEY          N/A     71  30  21 CALM      30.20S
SALMON         PTCLDY    75  41  29 CALM      30.00S
CHALLIS        MOCLDY    77  33  20 VRB3      30.07S
$$

IDZ002-004-006-007-026-160200-
NORTHERN IDAHO


CITY           SKY/WX    TMP DP  RH WIND       PRES   REMARKS
LEWISTON       PTCLDY    85  31  14 W3        29.84F
LOWELL           N/A     67  53  61 CALM      29.87S
COEUR D`ALENE  CLEAR     81  34  18 N6        29.93S
MULLAN PASS    CLEAR     67  26  21 CALM      30.15F
$$


USA.gov is the U.S. government's official web portal to all federal, state and local government web resources and services.